KAITUO 1B
1 40912U 15049P   18091.59636479 +.00001176 +00000-0 +60136-4 0  9998
2 40912 097.4517 100.0127 0013637 280.8667 201.3753 15.18565562140043
TIANWANG 1C (TW-1C)
1 40926U 15051B   18091.89108972  .00006435  00000-0  12573-3 0  9995
2 40926  97.1924 134.6187 0009767 184.3681 301.4189 15.47761791141500
TIANWANG 1B (TW-1B)
1 40927U 15051C   18091.89400463  .00006437  00000-0  13104-3 0  9999
2 40927  97.2013 134.4940 0009818 197.0604 162.7022 15.46564679141418
TIANWANG 1A (TW-1A)
1 40928U 15051D   18091.78316190  .00002591  00000-0  70777-4 0  9998
2 40928  97.1940 127.2672 0010270 231.9218 217.4203 15.38260232141038
LAPAN A2
1 40931U 15052B   18091.25995605  .00000818  00000-0  24910-4 0  9997
2 40931   6.0003 338.6028 0013092 357.3681   2.6533 14.76571166135615
LQSAT
1 40958U 15057A   18091.74602694  .00000004  00000-0  84466-5 0  9998
2 40958  97.9449 166.5483 0017012 218.4979 141.5008 14.73023003133597
CHUBUSAT 2
1 41338U 16012B   18091.38653692 +.00000348 +00000-0 +20518-4 0  9995
2 41338 031.0033 081.5833 0013811 032.9182 327.2312 14.99946177116294
CHUBUSAT 3
1 41339U 16012C   18091.34340941  .00000350  00000-0  20611-4 0  9999
2 41339  31.0107  80.5662 0013513  38.7275 321.4329 15.00136348116278
OUFTI-1
1 41458U 16025C   18091.55665321 +.00001857 +00000-0 +10021-3 0  9996
2 41458 098.1459 150.2904 0171506 045.1975 316.3052 15.04430164105927
E-STAR-2
1 41459U 16025D   18091.68336819  .00001648  00000-0  89646-4 0  9996
2 41459  98.1465 150.2940 0172979  45.3850 316.1329 15.04180474105925
AAUSAT 4
1 41460U 16025E   18091.73235211  .00001967  00000-0  10534-3 0  9991
2 41460  98.1394 150.7310 0164078  41.7665 319.5926 15.05521633105982
NUSAT 1
1 41557U 16033B   18091.29642668  .00001274  00000-0  49070-4 0  9995
2 41557  97.4384 175.6539 0015401  72.2420 288.0499 15.28134553102418
BEESAT 4
1 41619U 16040W   18091.21353120 +.00001338 +00000-0 +61751-4 0  9997
2 41619 097.4232 155.4035 0012959 135.1051 225.1236 15.21882932086382
PRATHAM
1 41783U 16059A   18091.60069071 +.00000046 +00000-0 +18382-4 0  9998
2 41783 098.1261 154.3649 0032968 338.2595 021.7205 14.62909609080761
ALSAT 1N
1 41789U 16059G   18091.69071897  .00000079  00000-0  24223-4 0  9999
2 41789  98.1268 155.5227 0027627 331.0699  28.8979 14.64138265 80828
NAYIF 1
1 42017U 17008BX  18091.55413815 +.00001347 +00000-0 +58271-4 0  9993
2 42017 097.4559 157.0482 0004877 295.0094 065.0637 15.24184454062392
LILACSAT-1
1 42725U 98067ME  18091.86840442  .00022508  00000-0  22209-3 0  9990
2 42725  51.6381  26.3347 0003153 314.1205  45.9530 15.65829144 48541
MAX VALIER SAT
1 42778U 17036P   18091.61434523 +.00000887 +00000-0 +42896-4 0  9998
2 42778 097.4120 152.5711 0012023 345.7240 014.3654 15.21133251042865
